Wind_Speed
31 31 30 29 29 27 26 24 25 25 23 21 20 21 22 22 22 21 22 22 23 24 25 25 25 26 25 25 25 24 25 24 24 24 24 24 24 25 26 27 29 30 31 32 32 33 34 35 37 38 39 38 38 39 38 38 38 36 33 32 32 35 38
33 32 30 30 30 28 27 26 27 28 26 22 21 22 24 24 24 23 24 24 25 26 27 27 28 28 28 27 27 26 26 26 25 25 25 25 25 26 27 28 30 31 33 33 34 35 35 36 38 40 40 39 40 40 40 40 39 36 34 34 35 37 39
33 32 30 30 29 28 27 28 29 29 27 23 22 24 26 26 26 25 26 26 27 28 29 29 29 30 30 29 28 28 27 27 26 26 26 26 26 27 28 30 31 32 33 34 35 36 36 37 39 41 42 42 42 41 41 41 39 37 37 38 39 40 40
33 33 31 31 30 29 30 30 30 30 28 26 25 26 28 28 28 28 28 29 29 30 31 31 31 32 32 31 30 29 29 29 28 28 27 28 28 29 30 31 33 33 34 35 36 37 37 38 39 41 43 44 44 44 43 42 40 38 37 38 40 42 42
34 33 33 33 32 30 31 32 31 31 31 29 28 28 30 31 30 31 31 31 32 32 32 33 33 34 34 32 31 30 30 31 31 30 29 29 30 31 32 34 34 35 35 36 37 38 38 39 40 41 43 44 45 46 45 44 43 41 38 37 40 43 43
36 36 36 35 34 33 33 34 33 34 35 34 31 31 32 33 33 33 33 33 34 34 35 35 35 35 34 33 33 32 32 33 33 32 31 32 32 33 34 36 36 37 37 37 38 39 40 41 42 43 44 45 46 47 47 46 45 44 42 41 42 44 45
38 39 39 36 36 36 35 35 36 36 36 36 35 33 34 35 35 35 35 35 36 36 37 37 36 36 35 35 35 34 34 34 34 34 33 34 35 36 37 37 38 39 39 39 40 41 41 42 43 44 46 47 47 48 48 48 47 46 45 44 44 44 45
41 41 43 40 38 39 38 38 39 38 36 36 35 34 35 36 37 37 37 37 37 38 38 37 37 37 36 37 36 36 36 36 36 35 35 37 38 38 38 39 40 41 41 41 42 43 43 44 44 46 47 48 48 49 49 50 49 48 46 46 44 44 44
43 43 45 43 40 40 41 40 40 39 38 37 36 36 37 38 39 39 39 38 39 39 38 38 39 38 38 38 38 38 38 38 38 38 39 40 40 40 41 41 42 42 43 43 43 44 45 45 46 47 48 49 49 49 50 50 50 49 49 48 47 45 45
45 44 46 46 42 42 43 42 41 41 41 40 40 40 41 41 41 40 40 40 40 40 39 40 40 41 40 40 40 40 40 40 40 41 42 43 43 43 43 44 44 44 44 45 46 46 47 48 48 48 49 50 50 50 51 51 51 50 50 50 49 48 48
49 47 47 46 44 44 45 44 43 44 43 43 43 42 43 43 43 42 42 42 42 41 41 41 42 43 42 42 42 42 42 42 43 44 45 45 45 45 46 46 46 46 46 47 47 48 49 49 50 50 50 51 52 52 52 51 51 51 51 50 50 50 51
54 49 48 49 47 46 47 46 46 46 46 46 45 44 44 44 45 45 45 44 43 43 43 44 45 45 45 44 44 44 45 45 46 47 48 47 47 48 48 48 49 49 48 48 49 50 51 51 51 52 52 53 54 54 53 52 52 52 51 50 50 52 53
57 51 50 52 50 48 48 48 48 48 48 48 47 46 46 46 46 47 47 46 46 46 46 47 47 48 47 46 46 47 47 48 49 50 50 50 49 49 50 50 51 51 51 50 50 51 52 52 53 53 54 55 55 55 55 54 53 53 52 51 50 52 54
58 54 53 54 52 48 48 49 50 51 51 50 49 49 48 49 48 48 48 48 48 49 49 49 49 50 49 48 49 49 50 50 52 53 53 52 51 51 52 52 52 53 53 53 52 52 52 53 55 56 56 56 57 57 56 56 55 54 53 52 51 53 55
59 56 55 57 56 52 50 51 51 53 54 53 52 51 50 51 51 50 51 51 51 51 51 52 51 51 51 51 51 52 52 53 54 55 55 55 54 53 53 54 54 54 55 56 55 54 54 54 56 58 59 58 57 58 58 57 57 56 55 53 52 53 55
61 58 58 59 58 57 55 54 54 56 56 55 54 53 52 53 53 52 53 54 54 53 53 54 54 53 53 53 54 54 54 55 57 57 58 57 56 56 55 55 55 55 56 57 58 57 57 56 57 58 60 59 59 59 59 59 59 58 57 55 54 55 56
64 63 62 60 59 58 58 57 57 58 57 56 55 54 54 55 55 54 55 55 55 55 55 55 56 56 56 55 56 56 56 57 59 59 60 60 59 58 57 57 56 56 57 58 58 59 59 59 58 58 59 60 60 60 60 60 59 58 57 56 56 56 57
68 68 67 64 61 59 59 60 59 59 58 57 57 56 57 57 57 56 57 57 58 58 57 57 59 59 58 57 57 58 58 59 60 61 62 62 61 60 59 59 58 58 59 59 59 60 60 60 60 60 59 59 60 61 61 60 59 59 59 58 57 57 58
70 70 69 68 66 64 63 63 61 59 58 58 58 58 58 58 58 58 59 59 60 60 60 60 61 61 60 60 59 59 61 61 62 62 63 63 63 62 61 61 60 61 61 61 61 61 61 61 62 62 61 60 60 60 59 59 60 61 61 60 58 58 59
72 72 71 71 72 70 67 66 64 62 61 60 59 59 59 59 59 60 61 62 62 62 63 63 63 64 63 61 60 60 62 63 63 64 64 64 64 64 63 63 63 64 64 64 64 64 64 64 64 64 63 62 60 58 58 59 59 60 61 62 61 60 60
76 75 74 75 76 72 69 70 69 65 64 63 61 61 61 61 62 63 63 64 64 65 66 65 65 66 65 62 61 62 64 65 65 65 65 66 66 65 66 66 66 67 67 68 68 68 67 67 66 66 65 62 60 59 61 62 61 61 62 63 64 63 62
80 79 77 78 79 75 70 72 72 69 67 65 64 63 63 64 65 66 66 66 66 68 68 67 67 68 67 64 63 64 66 67 67 67 67 67 67 67 68 68 69 70 70 71 71 71 71 70 69 68 65 62 62 63 64 65 65 65 65 66 66 66 65
81 81 80 82 83 78 74 74 75 72 70 67 66 66 67 68 68 68 69 68 69 71 71 69 69 69 67 66 65 66 67 69 69 69 68 68 68 69 70 71 71 72 73 74 74 74 74 73 72 70 67 65 65 66 67 67 68 68 69 69 69 69 68
85 85 86 88 86 81 78 78 75 73 73 71 69 69 70 72 72 71 71 70 71 73 72 71 71 70 68 68 68 68 70 71 71 70 69 69 70 71 72 73 73 74 75 76 77 78 78 76 73 70 68 67 67 68 69 70 70 70 71 71 71 70 70
90 88 89 91 88 83 81 80 76 75 76 74 71 71 73 74 74 73 73 73 73 75 74 73 73 72 71 72 71 71 72 72 72 72 71 71 72 72 73 74 75 76 77 78 79 79 77 75 72 69 68 68 69 70 71 71 71 71 71 71 71 71 71
93 91 90 92 91 86 82 80 77 77 79 78 75 74 75 76 76 75 75 74 74 75 75 74 74 74 74 74 73 73 74 74 73 73 73 73 74 74 75 76 76 77 78 79 80 79 76 73 71 69 69 70 71 71 72 72 72 72 72 71 72 72 73
94 93 91 92 94 88 81 80 81 81 82 82 79 77 77 78 77 76 75 75 74 73 74 74 74 75 76 76 76 76 76 76 75 75 75 75 75 76 77 77 78 78 79 79 80 79 76 74 73 72 72 72 72 72 73 73 73 72 72 73 73 74 75
96 94 91 94 97 90 81 81 84 85 87 87 82 79 80 80 79 77 77 78 77 77 77 76 77 77 77 77 78 78 78 77 77 77 77 77 78 78 78 79 79 79 79 79 79 79 78 77 75 75 74 74 74 73 73 73 73 73 73 74 75 76 77
96 95 94 96 97 90 81 81 83 86 90 90 86 82 80 78 77 77 77 78 79 79 79 79 79 79 78 79 80 80 80 79 79 79 79 80 80 80 80 80 81 80 79 79 79 79 79 78 77 76 75 75 75 74 74 74 74 74 75 76 77 78 79
96 95 96 97 97 92 86 84 85 85 86 86 84 82 79 78 78 78 75 74 75 77 79 80 80 79 80 81 81 81 81 81 81 81 81 82 82 81 81 80 80 79 78 77 77 77 76 76 75 76 76 76 76 75 75 75 75 76 77 78 78 80 81
94 95 97 99 98 95 91 90 90 89 88 87 85 81 78 78 79 79 76 75 75 77 79 80 80 81 82 82 82 82 82 83 83 83 82 82 82 81 81 80 79 78 77 75 75 75 74 74 75 77 77 77 77 76 76 77 78 78 79 80 80 82 83
89 93 96 98 98 97 96 96 97 95 92 89 87 84 80 80 81 82 83 82 81 81 81 81 81 82 83 84 84 84 84 84 84 83 83 82 81 80 80 79 79 77 75 73 73 75 75 76 78 78 78 79 78 78 78 79 79 80 80 81 82 83 84
82 84 86 91 97 101 102 102 101 99 96 92 89 88 87 87 87 89 90 88 86 85 83 83 83 84 84 85 85 85 85 85 84 83 82 81 80 80 80 79 77 76 75 74 75 76 77 78 79 79 79 79 79 79 80 80 80 81 81 82 83 84 85
69 72 76 84 91 96 101 103 102 99 97 95 92 90 89 88 88 89 89 89 89 88 86 85 85 85 86 86 86 86 86 85 85 83 81 81 81 80 78 76 74 73 74 75 75 75 77 78 78 79 79 80 80 81 81 81 81 81 82 83 85 86 86
57 62 74 86 89 89 93 98 99 97 97 97 95 92 90 90 89 88 88 88 89 89 88 87 87 86 86 86 85 86 86 85 84 82 81 81 80 78 76 75 73 71 73 75 75 76 77 78 78 79 80 81 82 82 82 82 82 82 83 84 86 87 89
54 59 71 83 90 91 91 90 91 92 93 95 95 94 93 92 91 89 87 87 88 88 88 88 87 86 85 85 85 85 85 84 82 81 81 80 79 77 76 75 74 74 75 76 76 77 78 78 78 79 80 81 82 82 82 81 82 82 84 86 88 89 91
53 57 64 71 78 85 89 88 88 88 88 89 91 92 92 91 90 88 86 86 86 87 87 86 85 84 84 84 84 84 84 83 82 82 82 81 79 77 76 74 73 74 75 75 76 77 78 78 79 80 80 81 81 81 80 81 82 84 86 88 89 91 91
57 61 66 70 73 78 82 85 87 88 88 87 87 87 88 89 89 88 86 85 84 85 85 85 84 83 83 82 83 83 83 82 82 82 82 81 79 77 75 73 72 73 75 76 76 77 77 78 78 79 80 80 79 79 80 82 84 86 88 89 90 91 92
Wind_Direction
235 237 239 240 242 243 243 243 244 248 254 256 256 258 260 262 264 267 270 274 278 282 286 290 293 295 298 300 303 306 308 310 313 316 318 322 325 326 326 323 320 319 319 319 321 323 324 324 325 326 327 328 328 328 327 326 324 320 318 317 319 324 326
238 239 241 242 244 245 247 246 245 248 253 254 253 257 260 262 265 267 271 274 278 282 286 289 292 294 297 299 302 304 306 308 311 314 316 319 321 322 320 318 316 315 316 319 321 322 321 322 323 325 326 326 327 328 326 324 321 318 317 318 320 322 324
240 241 242 244 247 247 246 246 246 249 252 254 254 256 261 264 266 269 272 275 279 282 285 288 291 293 296 298 300 303 305 307 309 312 314 317 319 317 316 313 312 313 315 318 319 318 319 320 321 323 324 325 326 327 327 326 323 318 314 315 317 319 321
240 242 243 244 245 245 245 245 245 246 250 254 255 257 261 265 267 270 272 276 278 280 284 287 289 292 295 297 298 301 303 305 307 310 313 315 315 314 312 310 310 312 314 315 315 315 317 319 320 321 322 324 324 324 325 326 324 321 316 313 313 315 316
237 241 244 245 245 245 249 249 247 246 250 254 255 256 261 265 267 269 272 275 277 280 283 286 288 291 294 296 297 299 301 303 306 309 312 313 311 310 308 308 309 312 313 313 313 314 316 318 319 319 320 321 322 322 323 322 321 319 316 312 310 310 312
236 239 241 244 247 247 248 251 252 251 253 254 255 258 262 266 268 270 272 274 277 280 283 285 288 291 293 295 296 298 300 303 305 308 310 309 307 306 306 307 309 311 312 312 313 314 316 317 317 318 319 319 320 320 320 320 319 317 314 311 309 308 308
238 240 240 240 244 247 248 250 253 254 255 255 253 256 263 268 270 271 273 275 277 280 283 285 288 290 292 294 295 297 300 302 303 306 307 306 304 303 305 307 308 310 311 313 313 314 315 316 316 316 317 318 318 319 318 318 317 315 312 310 308 307 307
238 241 243 240 241 245 247 248 251 253 255 254 251 255 263 268 271 273 274 275 277 280 283 285 287 289 291 292 294 296 298 300 302 304 305 302 301 302 304 306 307 309 311 312 312 313 314 314 314 315 316 316 317 318 317 316 315 314 312 310 309 308 307
239 241 245 245 243 245 247 249 252 255 256 255 255 260 265 268 271 274 274 276 277 280 283 285 286 288 289 291 293 295 297 299 301 302 301 299 299 301 303 304 306 309 310 311 312 312 312 313 313 313 314 315 316 316 316 315 314 314 313 312 310 310 308
241 240 244 246 246 247 249 251 253 256 257 257 258 261 264 268 271 273 274 275 277 279 282 283 285 286 288 290 292 294 296 298 299 299 298 297 299 300 301 303 305 307 309 310 310 310 311 311 312 312 312 314 315 315 315 314 314 313 313 312 311 310 309
243 241 244 246 246 247 250 252 253 255 256 257 259 260 262 265 268 271 273 275 276 278 281 282 284 285 287 289 291 293 294 296 297 296 296 296 298 299 300 302 304 305 307 308 309 309 310 310 310 310 312 313 314 314 314 314 313 313 312 311 310 309 309
245 243 244 246 245 245 248 251 252 254 255 257 259 261 262 263 266 269 272 274 276 278 280 281 282 284 285 288 290 291 293 294 294 294 294 295 297 298 300 301 302 304 305 307 308 308 308 308 309 309 311 312 313 314 314 314 313 312 312 311 310 309 308
245 244 244 246 246 245 246 249 252 254 256 257 259 261 263 264 265 268 271 273 275 277 279 280 281 283 285 287 288 290 291 292 292 292 293 294 296 297 298 299 301 303 304 305 306 306 307 307 308 309 310 311 312 314 314 314 312 312 311 311 310 308 308
245 245 245 246 247 246 246 247 250 253 255 256 257 259 260 262 264 267 269 271 272 275 276 278 279 282 284 286 287 289 290 290 291 291 292 293 295 296 297 298 300 302 303 304 304 305 306 307 308 308 309 311 312 313 314 313 311 311 311 311 310 308 308
242 244 245 245 244 244 245 246 248 250 253 254 256 257 259 261 263 265 267 269 271 272 274 276 278 280 282 284 285 286 288 289 289 290 291 292 293 294 295 297 299 301 302 303 304 304 305 306 307 308 309 311 312 313 313 312 311 310 310 310 309 308 309
240 241 243 244 244 244 245 245 246 247 249 252 254 256 258 260 262 264 265 267 269 270 272 275 277 279 280 282 283 284 286 287 288 289 290 291 292 293 294 296 298 300 301 302 303 304 305 306 306 307 308 311 312 312 312 311 310 310 310 310 309 309 310
239 239 240 243 245 245 244 244 245 246 248 250 253 255 257 259 261 263 264 266 268 269 271 274 276 277 278 279 281 282 284 285 286 288 289 290 291 292 294 295 297 298 299 300 301 302 303 304 305 306 308 310 311 311 311 311 310 309 309 309 310 310 311
239 240 241 242 244 245 245 245 244 246 248 250 252 254 256 258 260 262 263 265 267 269 271 273 274 275 277 277 279 281 282 283 285 287 288 289 290 291 293 295 296 297 298 298 299 300 301 303 305 306 308 309 310 310 310 310 309 308 309 309 310 312 312
240 241 241 242 243 245 246 246 246 247 248 250 251 253 254 257 259 261 263 264 266 268 269 270 272 274 275 276 278 280 281 282 284 285 287 288 289 291 293 294 295 296 297 297 298 299 301 303 305 306 307 308 309 309 309 308 308 308 309 310 311 312 313
241 242 241 242 243 245 246 247 248 248 249 251 252 253 255 257 259 260 262 263 265 266 268 269 271 273 274 275 277 278 280 282 283 285 286 288 289 291 293 294 295 296 297 298 299 301 302 304 305 306 307 307 307 307 307 307 307 309 310 310 311 313 314
241 242 242 243 244 245 246 249 251 251 251 253 253 254 256 257 258 260 261 263 264 266 267 269 270 271 273 274 276 278 280 281 283 284 286 288 290 292 293 295 296 297 298 299 300 301 303 304 304 305 306 306 307 308 308 308 309 310 310 310 311 312 313
241 242 243 244 246 245 245 248 251 252 253 254 255 256 257 257 258 259 260 262 264 265 266 268 270 271 272 274 276 278 280 281 282 284 286 288 290 292 293 295 296 297 298 300 301 302 303 303 304 305 306 306 307 309 310 310 311 311 311 311 311 312 311
239 241 242 243 245 245 245 246 249 251 253 254 255 256 256 256 257 259 260 261 263 264 265 267 269 271 272 273 275 278 279 280 282 284 286 288 290 292 293 294 296 297 299 299 301 302 302 303 304 305 307 308 310 311 311 311 312 312 312 312 311 312 312
237 238 241 242 243 244 245 246 247 250 251 252 252 253 255 256 257 258 259 260 262 263 265 267 268 270 272 274 276 277 278 280 282 284 287 289 290 291 293 294 296 297 299 300 301 302 303 303 305 308 309 310 311 311 311 311 312 311 311 311 311 311 311
239 238 239 242 243 243 244 246 247 249 250 251 252 252 254 255 256 257 259 260 262 264 266 267 268 270 272 274 276 277 278 280 282 285 287 288 289 291 292 294 296 297 299 300 302 303 302 303 306 308 309 309 310 310 310 311 311 310 310 309 309 309 310
240 240 240 243 244 243 244 247 248 249 251 251 251 252 253 254 256 257 259 261 263 264 265 266 268 270 272 274 276 277 279 281 283 285 287 288 290 291 293 294 296 298 299 300 301 301 301 302 304 306 307 307 308 308 308 309 309 308 308 307 307 307 308
240 241 242 244 246 245 244 247 249 250 251 251 251 251 253 254 255 257 259 261 262 262 264 267 269 271 273 275 277 278 280 282 284 285 287 288 290 291 293 294 296 297 298 299 299 300 300 300 302 304 305 306 306 306 307 307 306 306 306 305 306 307 307
240 241 242 244 246 246 244 246 248 249 250 251 251 251 252 254 257 258 259 260 260 262 265 268 270 272 274 275 277 278 280 282 284 286 287 289 290 291 293 294 295 296 297 298 298 298 298 299 301 302 304 304 305 305 305 305 305 305 305 305 305 306 306
240 241 242 244 246 246 245 245 246 246 248 250 251 252 253 256 259 260 259 259 260 262 265 268 270 272 274 275 277 279 280 282 284 285 287 288 289 291 293 294 295 296 297 297 298 297 297 298 300 301 302 303 303 304 304 304 304 304 304 304 305 305 305
240 242 243 245 246 246 245 244 245 246 247 249 250 252 254 256 258 258 258 259 260 262 264 267 270 272 273 275 276 278 280 282 283 284 286 287 289 291 292 293 293 294 295 296 296 295 295 297 299 300 301 302 302 303 303 302 302 303 303 303 304 304 304
242 243 244 247 248 248 247 246 246 247 249 249 251 253 254 254 254 255 257 258 261 263 266 268 269 271 272 274 275 277 278 280 282 283 285 286 288 289 290 291 291 292 293 294 293 293 294 296 297 298 300 301 301 301 301 301 302 302 302 302 302 302 303
245 244 246 248 250 250 250 249 248 250 251 252 252 253 251 250 251 255 258 259 261 264 265 266 268 269 271 273 274 276 278 279 280 282 283 285 286 287 288 289 290 291 292 292 291 291 293 295 296 298 299 300 300 300 300 301 302 302 301 301 301 301 301
250 249 249 252 253 252 251 251 251 251 252 252 252 252 252 252 254 257 259 260 262 263 264 265 267 269 270 272 274 275 277 278 279 281 282 283 284 285 286 288 289 290 291 290 289 290 292 294 296 298 299 299 299 299 300 301 301 300 300 299 300 300 300
254 251 248 248 250 251 250 250 250 251 252 252 252 253 254 255 256 257 258 260 261 263 264 265 267 268 269 271 273 274 276 277 278 279 281 282 283 284 286 288 289 289 289 288 288 289 292 293 295 297 298 297 297 298 299 299 299 299 298 298 299 300 301
254 248 242 241 243 246 247 248 248 250 251 251 252 253 253 255 256 257 259 260 262 263 264 265 266 267 269 270 272 273 274 276 277 278 280 281 282 284 286 287 286 286 286 287 288 290 292 293 295 296 295 296 296 297 298 298 298 298 298 298 299 300 302
250 247 244 243 243 245 247 248 248 248 249 250 250 251 252 254 256 258 259 261 262 262 263 265 266 267 269 270 271 272 274 275 277 278 279 280 282 284 285 286 285 285 285 287 288 289 291 293 293 293 294 295 295 296 297 297 298 298 298 299 301 303 304
243 246 248 247 246 247 248 250 249 248 249 250 251 251 252 254 256 258 259 260 261 262 263 265 266 267 269 270 271 272 274 275 276 277 278 280 281 283 284 284 283 283 285 286 287 288 290 291 292 292 293 294 295 296 297 297 298 298 299 301 303 305 306
234 240 245 247 248 248 248 249 250 250 250 251 252 253 253 254 255 256 258 260 261 262 263 265 266 267 269 271 272 273 274 276 277 278 279 280 281 282 282 281 280 281 283 285 286 288 290 291 291 292 293 294 296 296 297 297 298 299 301 303 304 306 306
Height
10963 10963 10965 10966 10966 10967 10968 10968 10969 10969 10970 10971 10973 10974 10974 10974 10974 10975 10975 10975 10975 10975 10975 10975 10975 10975 10975 10974 10974 10974 10973 10972 10972 10972 10971 10971 10970 10969 10968 10966 10964 10962 10961 10959 10958 10957 10955 10953 10950 10949 10947 10945 10943 10941 10939 10937 10935 10933 10932 10930 10929 10927 10925
10960 10961 10963 10963 10963 10965 10965 10966 10967 10967 10968 10969 10970 10971 10971 10971 10971 10972 10972 10972 10972 10972 10972 10973 10973 10972 10972 10972 10972 10971 10970 10970 10970 10969 10969 10969 10968 10967 10965 10963 10961 10959 10958 10957 10956 10954 10952 10950 10948 10946 10944 10943 10941 10939 10937 10935 10932 10930 10928 10927 10926 10924 10922
10957 10959 10961 10961 10962 10963 10963 10963 10964 10965 10966 10966 10967 10968 10968 10968 10969 10969 10969 10969 10969 10970 10970 10970 10970 10970 10969 10969 10969 10969 10968 10967 10967 10967 10967 10966 10965 10964 10962 10960 10958 10957 10956 10955 10953 10951 10949 10947 10946 10943 10941 10939 10938 10936 10934 10932 10929 10927 10924 10923 10921 10919 10918
10954 10956 10958 10958 10959 10960 10959 10960 10961 10962 10963 10963 10963 10964 10965 10965 10965 10966 10966 10966 10966 10967 10967 10967 10967 10967 10966 10967 10966 10966 10965 10965 10965 10965 10964 10964 10962 10961 10959 10957 10955 10955 10954 10953 10951 10948 10947 10945 10943 10941 10938 10936 10934 10932 10930 10928 10926 10924 10922 10919 10917 10915 10914
10952 10953 10954 10954 10956 10957 10957 10957 10958 10959 10959 10960 10960 10961 10961 10962 10962 10962 10963 10963 10963 10964 10964 10964 10964 10964 10964 10963 10963 10963 10962 10962 10962 10962 10961 10961 10959 10957 10955 10953 10952 10952 10952 10950 10948 10945 10944 10942 10940 10938 10936 10933 10931 10928 10926 10925 10923 10921 10919 10917 10914 10912 10910
10950 10950 10950 10951 10953 10954 10954 10954 10955 10956 10956 10956 10957 10957 10958 10958 10959 10959 10960 10960 10960 10961 10961 10961 10961 10961 10961 10960 10960 10960 10959 10959 10959 10959 10958 10957 10955 10953 10952 10951 10950 10949 10948 10946 10944 10942 10941 10939 10937 10935 10932 10930 10929 10926 10923 10921 10919 10917 10915 10913 10911 10908 10906
10946 10946 10946 10949 10949 10949 10950 10951 10951 10951 10952 10952 10953 10953 10954 10955 10956 10956 10957 10957 10957 10957 10958 10958 10958 10958 10957 10957 10956 10957 10956 10956 10956 10955 10955 10953 10951 10950 10949 10948 10946 10945 10944 10943 10941 10939 10938 10936 10934 10931 10929 10927 10925 10922 10920 10918 10916 10913 10910 10908 10907 10905 10902
10941 10941 10940 10943 10945 10945 10946 10947 10947 10947 10949 10949 10949 10950 10951 10952 10952 10952 10953 10954 10954 10954 10954 10954 10954 10954 10954 10953 10953 10954 10953 10953 10952 10952 10951 10948 10947 10946 10946 10945 10943 10942 10941 10939 10938 10936 10934 10933 10931 10928 10926 10923 10921 10918 10916 10913 10911 10908 10905 10902 10901 10900 10898
10937 10938 10936 10938 10942 10942 10941 10942 10944 10944 10945 10947 10947 10947 10948 10948 10948 10949 10949 10950 10950 10950 10951 10951 10950 10950 10950 10950 10950 10950 10950 10949 10949 10948 10946 10944 10943 10943 10942 10941 10940 10939 10937 10936 10934 10933 10931 10929 10927 10925 10922 10920 10918 10915 10912 10909 10906 10903 10900 10897 10895 10894 10893
10931 10933 10932 10934 10938 10938 10937 10939 10940 10940 10941 10942 10943 10944 10945 10945 10945 10945 10945 10945 10946 10947 10947 10947 10946 10946 10946 10946 10947 10947 10946 10945 10945 10943 10941 10939 10939 10939 10938 10937 10936 10935 10934 10932 10931 10929 10927 10925 10923 10921 10918 10916 10913 10911 10908 10905 10902 10899 10896 10893 10890 10888 10887
10924 10927 10928 10929 10933 10933 10933 10935 10936 10936 10937 10938 10939 10940 10941 10941 10941 10941 10941 10941 10942 10943 10943 10943 10942 10941 10942 10943 10943 10943 10942 10941 10940 10938 10936 10935 10935 10935 10934 10933 10931 10931 10931 10929 10927 10925 10923 10921 10919 10916 10914 10911 10908 10906 10904 10901 10897 10895 10892 10890 10886 10883 10881
10915 10921 10923 10924 10927 10929 10929 10930 10931 10932 10933 10933 10935 10935 10936 10936 10936 10936 10936 10937 10937 10938 10939 10938 10937 10937 10938 10939 10939 10938 10937 10937 10935 10933 10932 10932 10931 10930 10929 10928 10926 10926 10926 10925 10923 10921 10919 10917 10915 10912 10909 10907 10904 10901 10899 10896 10893 10890 10888 10886 10883 10879 10876
10908 10914 10917 10917 10920 10924 10925 10926 10927 10927 10928 10929 10930 10931 10931 10931 10932 10932 10932 10932 10933 10933 10934 10933 10933 10932 10933 10934 10934 10933 10932 10931 10929 10927 10927 10927 10927 10926 10925 10923 10922 10920 10920 10920 10919 10917 10915 10912 10910 10907 10905 10902 10899 10896 10894 10891 10888 10885 10883 10882 10880 10875 10871
10903 10908 10910 10911 10914 10918 10921 10921 10922 10922 10922 10924 10925 10926 10926 10926 10927 10927 10927 10928 10929 10929 10928 10928 10928 10928 10928 10929 10929 10927 10927 10926 10923 10921 10921 10922 10922 10922 10920 10919 10918 10916 10914 10913 10913 10912 10911 10908 10904 10902 10899 10897 10895 10891 10888 10885 10882 10880 10878 10877 10875 10871 10866
10898 10902 10904 10905 10907 10911 10914 10916 10917 10917 10917 10918 10919 10921 10922 10921 10922 10923 10923 10923 10924 10925 10924 10923 10923 10923 10924 10924 10923 10922 10921 10920 10917 10916 10916 10916 10917 10917 10916 10914 10913 10912 10909 10907 10906 10906 10905 10904 10900 10896 10893 10892 10890 10886 10883 10879 10876 10874 10872 10871 10869 10865 10860
10893 10896 10897 10897 10900 10904 10906 10909 10911 10911 10912 10913 10914 10915 10917 10916 10917 10918 10918 10918 10918 10919 10919 10918 10918 10918 10918 10918 10917 10916 10916 10914 10911 10910 10909 10910 10910 10911 10911 10909 10909 10907 10905 10902 10900 10899 10898 10898 10896 10892 10888 10886 10884 10881 10877 10873 10869 10867 10866 10865 10863 10859 10855
10887 10889 10890 10891 10893 10896 10899 10902 10904 10905 10907 10908 10909 10910 10911 10911 10911 10912 10912 10912 10912 10913 10914 10913 10912 10912 10913 10913 10911 10911 10910 10908 10906 10904 10903 10903 10904 10904 10904 10904 10904 10903 10901 10898 10896 10894 10893 10892 10891 10889 10885 10882 10878 10875 10872 10868 10864 10861 10860 10859 10857 10853 10849
10879 10881 10882 10885 10888 10890 10892 10894 10897 10899 10902 10903 10904 10905 10905 10905 10905 10906 10906 10906 10906 10906 10907 10907 10906 10905 10906 10907 10906 10905 10904 10902 10900 10899 10897 10897 10897 10898 10898 10898 10898 10897 10895 10894 10892 10890 10888 10886 10884 10882 10880 10878 10875 10870 10866 10863 10859 10856 10855 10853 10851 10847 10843
10871 10873 10876 10879 10881 10882 10883 10886 10891 10894 10895 10897 10898 10898 10898 10899 10899 10900 10899 10899 10899 10899 10900 10900 10899 10898 10900 10901 10901 10899 10897 10895 10895 10893 10891 10890 10890 10891 10891 10891 10891 10890 10889 10888 10886 10884 10882 10880 10877 10874 10873 10872 10870 10866 10862 10857 10853 10850 10847 10845 10844 10842 10838
10863 10866 10869 10871 10871 10874 10878 10880 10884 10887 10888 10890 10891 10891 10893 10894 10893 10893 10893 10892 10892 10892 10892 10893 10893 10892 10892 10894 10895 10894 10891 10889 10888 10887 10886 10884 10884 10884 10884 10884 10883 10882 10881 10879 10878 10876 10874 10872 10869 10866 10865 10863 10862 10860 10856 10852 10849 10846 10841 10836 10835 10834 10832
10855 10858 10861 10862 10861 10868 10875 10874 10875 10880 10882 10884 10886 10886 10888 10889 10887 10886 10887 10886 10886 10885 10885 10886 10886 10884 10885 10888 10889 10887 10885 10883 10881 10881 10880 10878 10878 10877 10876 10876 10874 10873 10872 10870 10869 10867 10866 10864 10862 10860 10857 10855 10853 10851 10848 10843 10842 10841 10836 10831 10828 10827 10827
10847 10850 10854 10853 10851 10860 10869 10867 10867 10872 10875 10877 10880 10882 10883 10882 10880 10880 10880 10880 10880 10878 10878 10880 10879 10877 10878 10881 10882 10880 10878 10876 10874 10875 10874 10873 10873 10871 10869 10868 10867 10865 10864 10862 10860 10859 10858 10856 10854 10852 10851 10848 10845 10843 10839 10834 10832 10831 10828 10825 10821 10820 10819
10839 10840 10844 10842 10840 10850 10860 10860 10860 10863 10867 10871 10874 10875 10874 10873 10873 10873 10873 10874 10874 10871 10871 10873 10872 10871 10872 10874 10875 10874 10871 10869 10868 10868 10869 10868 10867 10865 10863 10862 10860 10859 10857 10854 10852 10851 10849 10847 10845 10843 10842 10840 10837 10834 10830 10827 10824 10821 10818 10815 10812 10810 10807
10827 10829 10830 10829 10831 10841 10847 10849 10854 10857 10858 10862 10865 10866 10866 10865 10865 10866 10866 10868 10867 10863 10864 10866 10865 10865 10865 10866 10867 10867 10864 10862 10862 10863 10863 10863 10861 10859 10857 10856 10854 10852 10849 10846 10844 10842 10839 10837 10837 10835 10832 10830 10827 10824 10821 10819 10817 10814 10810 10807 10803 10801 10798
10813 10818 10819 10818 10823 10833 10837 10839 10847 10849 10849 10852 10857 10858 10857 10856 10857 10859 10859 10861 10860 10857 10858 10859 10858 10858 10858 10858 10859 10859 10857 10856 10857 10857 10857 10856 10854 10853 10851 10849 10848 10845 10842 10839 10836 10833 10830 10828 10828 10827 10824 10822 10820 10817 10814 10811 10809 10806 10803 10800 10796 10794 10791
10804 10809 10812 10811 10814 10824 10832 10834 10838 10841 10840 10843 10847 10849 10848 10848 10850 10853 10853 10854 10855 10853 10851 10851 10851 10851 10851 10851 10852 10851 10850 10850 10851 10851 10850 10849 10847 10847 10845 10843 10842 10839 10837 10833 10828 10825 10823 10821 10820 10820 10818 10816 10814 10812 10808 10805 10802 10799 10796 10793 10790 10787 10784
10794 10799 10807 10806 10802 10814 10829 10830 10828 10830 10830 10830 10836 10840 10840 10840 10843 10847 10848 10848 10848 10847 10845 10845 10845 10844 10844 10845 10845 10844 10843 10843 10844 10843 10843 10842 10841 10840 10838 10837 10836 10834 10831 10827 10821 10817 10816 10815 10814 10813 10812 10810 10808 10806 10802 10799 10796 10793 10789 10786 10783 10780 10776
10786 10792 10799 10795 10789 10804 10824 10823 10818 10819 10817 10817 10825 10830 10831 10832 10836 10841 10842 10840 10840 10840 10840 10839 10839 10838 10838 10839 10837 10836 10836 10836 10836 10836 10835 10835 10834 10834 10832 10830 10829 10827 10824 10819 10814 10810 10808 10807 10807 10806 10804 10802 10800 10797 10794 10791 10788 10785 10781 10778 10774 10771 10767
10781 10784 10787 10784 10783 10799 10815 10813 10807 10806 10805 10809 10816 10820 10824 10829 10831 10831 10832 10833 10834 10835 10834 10833 10832 10832 10833 10832 10830 10829 10830 10830 10830 10829 10828 10827 10827 10827 10826 10823 10821 10818 10815 10811 10807 10803 10800 10799 10799 10798 10796 10794 10792 10789 10786 10783 10780 10777 10773 10769 10766 10762 10759
10777 10779 10780 10778 10780 10791 10802 10801 10798 10797 10798 10804 10809 10813 10819 10824 10822 10820 10824 10827 10828 10828 10827 10826 10827 10827 10827 10825 10825 10824 10824 10823 10823 10823 10822 10821 10820 10820 10819 10816 10814 10811 10808 10805 10800 10796 10793 10792 10792 10791 10789 10786 10784 10781 10778 10775 10773 10769 10766 10762 10758 10755 10751
10775 10776 10775 10773 10776 10785 10792 10792 10791 10790 10793 10798 10802 10806 10813 10815 10812 10812 10816 10819 10822 10821 10820 10820 10821 10820 10819 10818 10818 10818 10818 10818 10817 10816 10817 10816 10815 10813 10811 10809 10807 10805 10802 10799 10793 10789 10787 10786 10785 10784 10782 10779 10777 10774 10771 10768 10766 10762 10758 10754 10751 10747 10743
10769 10771 10773 10774 10777 10780 10782 10782 10781 10782 10787 10793 10797 10800 10803 10803 10804 10804 10806 10810 10815 10815 10815 10815 10814 10813 10812 10812 10811 10811 10812 10811 10810 10810 10811 10810 10808 10806 10804 10801 10800 10798 10796 10792 10786 10781 10780 10780 10778 10777 10775 10772 10769 10766 10763 10761 10758 10754 10750 10746 10742 10739 10735
10763 10769 10777 10779 10776 10773 10772 10771 10771 10775 10781 10786 10788 10791 10792 10795 10798 10798 10797 10801 10805 10807 10808 10809 10808 10807 10806 10805 10804 10805 10804 10803 10802 10803 10804 10802 10800 10798 10796 10794 10792 10790 10788 10784 10779 10775 10774 10773 10771 10769 10766 10763 10760 10757 10754 10752 10749 10746 10742 10737 10733 10730 10726
10755 10763 10770 10769 10766 10765 10764 10763 10763 10768 10774 10776 10779 10783 10785 10787 10789 10789 10791 10793 10795 10797 10800 10801 10800 10799 10798 10798 10798 10797 10796 10795 10795 10796 10796 10794 10792 10790 10789 10787 10785 10782 10778 10774 10772 10769 10768 10766 10764 10761 10758 10755 10751 10749 10747 10744 10741 10737 10733 10729 10725 10722 10718
10746 10750 10752 10751 10750 10750 10752 10754 10756 10761 10765 10768 10771 10775 10778 10780 10780 10781 10784 10785 10785 10787 10790 10790 10791 10791 10791 10791 10791 10789 10787 10787 10787 10787 10787 10785 10783 10783 10782 10779 10778 10775 10770 10765 10763 10762 10760 10758 10757 10754 10751 10747 10743 10741 10739 10736 10732 10728 10724 10719 10716 10712 10708
10740 10736 10735 10736 10738 10738 10741 10745 10749 10752 10755 10758 10760 10764 10770 10773 10774 10774 10775 10776 10776 10777 10778 10779 10781 10783 10782 10783 10782 10780 10779 10779 10779 10779 10777 10776 10776 10777 10775 10771 10767 10764 10762 10759 10757 10755 10753 10751 10749 10746 10743 10740 10736 10733 10730 10726 10722 10718 10714 10710 10707 10703 10699
10731 10726 10723 10726 10728 10730 10733 10736 10740 10743 10745 10748 10751 10755 10761 10765 10766 10765 10765 10766 10766 10767 10768 10770 10772 10773 10773 10774 10772 10770 10770 10771 10770 10768 10767 10768 10769 10770 10768 10764 10758 10754 10753 10752 10750 10748 10746 10743 10740 10737 10734 10731 10729 10725 10721 10716 10712 10708 10705 10701 10698 10694 10690
10718 10716 10716 10718 10719 10721 10724 10727 10730 10734 10736 10739 10743 10748 10752 10755 10755 10755 10755 10756 10757 10758 10759 10761 10763 10763 10764 10764 10762 10760 10761 10761 10760 10758 10757 10758 10760 10760 10758 10755 10751 10748 10746 10744 10742 10740 10738 10735 10732 10729 10725 10722 10719 10716 10712 10708 10704 10700 10696 10693 10689 10685 10681